Yuma, AZ

9:01 PM MST on December 08, 2016 (GMT -0700)
Yuma Marine Corps Air Station

Weather History for KNYL - May, 2014

Change the Weather History Date:

Tuesday, May 6, 2014

  Actual Average Record
Temperature  
Mean Temperature 70 °F 79 °F  
Max Temperature 80 °F 92 °F 107 °F (1963)
Min Temperature 59 °F 65 °F 49 °F (1975)
Degree Days  
Heating Degree Days 0 0  
Month to date heating degree days 0 0  
Since 1 July heating degree days 370 686  
Cooling Degree Days 5 14  
Month to date cooling degree days 99 78  
Year to date cooling degree days 711 484  
Growing Degree Days 20 (Base 50)    
Moisture  
Dew Point 35 °F    
Average Humidity 31    
Maximum Humidity 44    
Minimum Humidity 17    
Precipitation  
Precipitation 0.00 in 0.01 in 0.02 in (1921)
Month to date precipitation 0.00 0.02  
Year to date precipitation 0.07 1.26  
Sea Level Pressure  
Sea Level Pressure 29.75 in    
Wind  
Wind Speed 19 mph (WNW)    
Max Wind Speed 35 mph    
Max Gust Speed 45 mph    
Visibility 5 miles    
Events      
T = Trace of Precipitation, MM = Missing Value Source: NWS Daily Summary

Daily Weather History Graph

Daily Weather History Graph

Search for Another Location

Airport or City:

Trip Planner

Search our weather history database for the weather conditions in past years. The results will help you decide how hot, cold, wet, or windy it might be!

Date:

Astronomy

May. 06, 2014 Rise Set
Actual Time 5:46 AM MST 7:23 PM MST
Civil Twilight 5:20 AM MST 7:50 PM MST
Nautical Twilight 4:48 AM MST 8:22 PM MST
Astronomical Twilight 4:14 AM MST 8:55 PM MST
Moon 12:02 PM MST (5/6) 12:48 AM MST (5/6)
Length of Visible Light 14h 30m
Length of Day
13h 36m
Waxing Crescent, 47% of the Moon is Illuminated
May 6
Waxing Crescent
May 6
First Quarter
May 14
Full
May 21
Last Quarter
May 28
New

Hourly Weather History & Observations

Time (MST) Temp. Dew Point Humidity Pressure Visibility Wind Dir Wind Speed Gust Speed Precip Events Conditions
4:57 AM 64.0 °F 42.1 °F 45% 29.73 in 10.0 mi WNW 13.8 mph 25.3 mph N/A   Clear
5:57 AM 64.9 °F 42.1 °F 43% 29.75 in 10.0 mi NW 13.8 mph 26.5 mph N/A   Clear
6:57 AM 66.0 °F 39.9 °F 38% 29.76 in 7.0 mi NW 20.7 mph 33.4 mph N/A   Widespread Dust
7:25 AM 66.0 °F 39.9 °F 38% 29.77 in 2.0 mi WNW 23.0 mph 36.8 mph N/A   Widespread Dust
7:36 AM 66.0 °F 39.9 °F 38% 29.77 in 1.0 mi WNW 27.6 mph 40.3 mph N/A   Widespread Dust
7:55 AM 66.2 °F 39.2 °F 37% 29.77 in 0.5 mi WNW 25.3 mph 35.7 mph N/A   Unknown
7:57 AM 68.0 °F 37.9 °F 33% 29.77 in 0.5 mi WNW 28.8 mph 34.5 mph N/A   Mostly Cloudy
8:57 AM 69.1 °F 37.0 °F 31% 29.78 in 0.5 mi WNW 29.9 mph 39.1 mph N/A   Mostly Cloudy
9:57 AM 71.1 °F 34.0 °F 26% 29.78 in 0.5 mi WNW 26.5 mph 38.0 mph N/A   Mostly Cloudy
10:41 AM 70.0 °F 35.1 °F 28% 29.79 in 2.0 mi WNW 27.6 mph 34.5 mph N/A   Widespread Dust
10:57 AM 70.0 °F 36.0 °F 29% 29.78 in 2.0 mi WNW 21.9 mph 34.5 mph N/A   Widespread Dust
11:55 AM 69.8 °F 33.8 °F 27% 29.78 in 3.0 mi WNW 15.0 mph 26.5 mph N/A   Haze
11:57 AM 70.0 °F 34.0 °F 27% 29.78 in 3.0 mi WNW 15.0 mph 26.5 mph N/A   Haze
12:57 PM 73.9 °F 30.9 °F 21% 29.75 in 6.0 mi WNW 19.6 mph 27.6 mph N/A   Widespread Dust
1:57 PM 75.9 °F 30.9 °F 19% 29.75 in 10.0 mi WNW 17.3 mph 23.0 mph N/A   Mostly Cloudy
2:57 PM 78.1 °F 30.0 °F 17% 29.73 in 10.0 mi West 11.5 mph - N/A   Scattered Clouds
3:57 PM 79.0 °F 30.0 °F 17% 29.70 in 3.0 mi West 24.2 mph 29.9 mph N/A   Haze
4:57 PM 75.9 °F 28.0 °F 17% 29.70 in 5.0 mi WNW 25.3 mph 33.4 mph N/A   Haze
5:57 PM 73.0 °F 28.9 °F 20% 29.69 in 6.0 mi WNW 21.9 mph 31.1 mph N/A   Haze
6:57 PM 69.1 °F 32.0 °F 25% 29.72 in 6.0 mi WNW 10.4 mph 23.0 mph N/A   Haze
7:57 PM 66.0 °F 33.1 °F 29% 29.75 in 8.0 mi WNW 17.3 mph 28.8 mph N/A   Haze
8:57 PM 63.0 °F 33.1 °F 33% 29.75 in 10.0 mi WNW 19.6 mph 28.8 mph N/A   Clear
9:57 PM 62.1 °F 33.1 °F 34% 29.77 in 10.0 mi WNW 17.3 mph 27.6 mph N/A   Clear
10:57 PM 61.0 °F 35.1 °F 38% 29.78 in 10.0 mi West 15.0 mph 23.0 mph N/A   Clear
11:57 PM 59.0 °F 35.1 °F 41% 29.77 in 10.0 mi West 11.5 mph - N/A   Clear